Location: Cheyres
(46.8153°N, 6.7877°E)
Time: 01:12:25
(UTC+00:00)

Tiros 1 - Pass Details

Date: 03 June 2022
Orbit: 629 x 663 km, 48.4° (Epoch: 05 July)

Event Time Altitude Azimuth Distance (km) Brightness Sun altitude
Rises 20:12:14 0° 206° (SSW) 2,904 10.3 -7.6°
Reaches altitude 10° 20:14:56 10° 192° (SSW) 1,998 9.4 -7.9°
Maximum altitude 20:18:29 23° 141° (SE) 1,356 8.2 -8.3°
Drops below altitude 10° 20:22:04 10° 89° (E) 2,006 9.3 -8.7°
Sets 20:24:47 0° 75° (ENE) 2,919 10.2 -9.0°
